Regional Weather Roundup
Issued by NWS

Home | Current Version | Previous Version | Text Only | Print | Product List | Glossary Off
Versions: 1 2 3 4 5 6 7 8 9 10 11 12 13 14 15 16 17 18 19 20 21 22 23 24 25 26 27 28 29 30 31 32 33 34 35 36 37 38 39 40 41 42 43 44 45 46 47 48 49 50

000
ASUS43 KLMK 160910
RWRKY
KENTUCKY REGIONAL WEATHER ROUNDUP
NATIONAL WEATHER SERVICE LOUISVILLE KY
500 AM EDT WED APR 16 2014

NOTE "FAIR" INDICATES FEW OR NO CLOUDS BELOW 12,000 FEET
WITH NO SIGNIFICANT WEATHER AND/OR OBSTRUCTIONS TO VISIBILITY.

KYZ001>023-026-027-061>063-070>075-161000-
WESTERN AND SOUTH CENTRAL KENTUCKY

CITY           SKY/WX    TMP DP  RH WIND       PRES   REMARKS
PADUCAH        CLEAR     34  26  72 SE6       30.27S WCI  29
HENDERSON      CLEAR     34  21  60 SE7       30.30F WCI  28
OWENSBORO      CLEAR     31  27  85 CALM      30.33R
HOPKINSVILLE   CLEAR     32  23  69 NE7       30.29S WCI  26
BOWLING GREEN  CLEAR     29  23  78 NE5       30.32S WCI  24
GLASGOW        CLEAR     29  23  79 CALM      30.32R
$$

KYZ024-025-028>034-038-045-046-053-161000-
NORTH CENTRAL KENTUCKY

CITY           SKY/WX    TMP DP  RH WIND       PRES   REMARKS
LOUISVILLE/SDF PTCLDY    33  20  58 E5        30.34R WCI  29
LOUISVILLE/LOU CLEAR     33  21  61 CALM      30.35R
FORT KNOX      CLEAR     30  20  67 E6        30.31S WCI  24
$$

KYZ035>037-039>044-047>052-055>060-089>105-161000-
NORTHEAST KENTUCKY

CITY           SKY/WX    TMP DP  RH WIND       PRES   REMARKS
LEXINGTON      CLEAR     30  18  60 E5        30.34R WCI  25
COVINGTON      CLEAR     28  18  66 E3        30.33R
FRANKFORT      CLEAR     25  22  88 CALM      30.34R
$$

KYZ054-064>069-076>088-106>120-161000-
SOUTHEAST KENTUCKY

CITY           SKY/WX    TMP DP  RH WIND       PRES   REMARKS
JACKSON        CLEAR     27  19  72 NE3       30.30R
LONDON         CLEAR     29  21  72 NE3       30.30R
SOMERSET       CLEAR     28  27  93 CALM      30.33R
MIDDLESBORO    CLEAR     28  25  87 CALM      30.30R
MONTICELLO     SUNNY     58  56  93 CALM      30.33R
$$




USA.gov is the U.S. government's official web portal to all federal, state and local government web resources and services.